Temp
49 49 50 50 51 51 52 52 53 53 53 53 53 54 54 54 55 55 55 55 56 57 58 59 59 58 58 58 58 58 58 58 58 59 59 60 60 61 62 62 63 63 64 65 65 65 65 65 64 64 63 63 63 63 63 63 62 62 62 62 61 62 62 61 61 60 59 59 59
49 49 50 50 51 51 51 52 52 53 53 53 53 53 53 53 54 55 55 54 56 56 57 57 58 57 56 56 56 56 56 57 57 58 58 59 60 60 61 61 62 62 63 63 64 64 64 64 64 63 63 62 62 62 62 62 62 62 62 62 62 62 61 61 61 60 60 59 59
49 49 49 49 50 50 51 52 52 52 52 51 52 52 52 53 53 54 55 55 55 54 54 55 55 55 54 54 54 54 55 55 56 56 57 58 58 58 58 58 59 60 61 62 63 64 64 63 63 63 62 62 62 62 61 61 62 62 62 61 61 61 61 61 61 60 60 59 58
48 49 49 49 49 50 51 52 52 52 52 51 51 50 51 51 52 53 53 52 51 51 51 52 52 52 52 52 52 53 53 53 53 54 55 56 56 56 57 57 58 59 60 61 62 63 64 63 63 62 62 62 62 62 61 60 61 60 59 59 59 60 59 58 58 57 57 55 54
49 49 49 49 49 50 50 50 50 51 50 50 50 50 50 50 50 50 50 50 51 51 51 50 51 52 52 52 52 52 52 53 53 54 54 55 56 56 56 57 58 59 60 61 62 63 63 63 62 62 62 62 62 61 61 60 60 58 56 55 55 55 55 54 53 52 51 50 49
50 49 49 49 49 49 49 49 49 49 48 48 48 48 49 50 50 50 50 50 51 51 51 52 52 52 53 53 53 53 53 54 54 55 55 55 56 57 57 57 58 59 60 61 62 62 63 62 61 61 61 60 60 60 60 60 59 56 54 52 51 51 51 51 50 50 49 49 48
48 48 49 48 48 47 47 47 47 47 47 47 47 47 48 49 49 49 49 49 50 51 52 53 53 53 53 53 53 54 54 55 55 55 55 55 55 56 57 57 58 59 59 60 61 61 62 62 60 58 57 56 55 56 57 58 56 54 52 50 50 49 50 50 50 49 48 48 47
46 47 47 46 46 46 46 46 46 46 47 48 48 47 47 48 48 48 49 49 50 51 51 52 52 52 52 53 53 54 54 55 55 55 55 55 55 55 56 56 57 58 58 59 60 60 60 59 57 56 55 54 53 54 54 55 54 52 51 49 49 49 49 50 49 48 48 47 47
46 45 45 45 45 45 45 46 46 47 47 48 48 48 48 48 48 49 49 50 51 51 52 52 52 52 53 53 53 53 53 54 54 54 54 54 55 55 55 56 56 56 57 57 58 58 57 55 54 53 52 52 52 53 53 53 52 51 49 48 48 47 48 48 48 47 47 47 46
45 45 45 45 46 46 46 46 47 47 48 48 49 49 50 50 50 50 50 51 51 52 52 52 52 53 53 53 53 53 53 53 53 53 53 53 53 53 54 54 54 54 54 55 55 55 54 53 52 51 51 52 52 52 52 52 51 49 48 47 47 47 47 47 47 46 46 45 44
45 45 46 46 46 47 47 47 48 48 49 49 49 50 51 51 51 51 51 51 52 52 52 52 52 52 52 52 52 52 52 52 52 52 52 51 52 52 52 52 52 52 52 53 53 53 53 52 51 51 51 51 51 51 51 50 49 48 47 47 47 46 46 46 46 45 45 44 43
45 45 45 46 46 47 47 48 48 49 49 49 50 50 51 51 51 51 51 51 51 52 52 52 52 52 52 51 51 52 52 52 51 51 51 51 51 51 51 51 51 51 51 51 52 52 51 51 50 50 50 50 50 50 49 49 48 47 46 46 46 45 45 44 44 44 44 43 42
45 45 45 46 46 47 47 48 48 49 49 50 50 50 50 51 51 51 51 51 51 51 51 51 51 51 50 51 51 51 51 51 50 50 50 50 50 50 50 50 50 50 50 50 51 51 50 50 50 49 49 49 49 48 48 48 47 46 45 45 44 44 43 43 43 43 43 42 42
45 45 46 46 46 47 47 48 48 49 49 49 49 50 50 50 50 50 50 49 49 50 50 50 50 50 50 50 50 50 50 50 49 49 49 48 48 48 48 48 48 48 48 49 49 49 49 49 48 48 47 47 47 47 47 46 46 45 45 44 43 43 42 42 42 42 42 41 41
45 45 45 46 46 47 47 47 48 48 49 49 49 49 49 49 49 49 49 49 49 49 49 49 49 49 49 49 49 49 49 49 48 48 47 47 47 47 47 47 47 47 47 47 47 47 47 47 46 46 46 46 45 45 45 45 45 44 44 43 43 42 42 41 41 41 41 40 40
46 46 46 46 46 46 47 47 48 48 48 48 48 48 48 48 49 49 49 48 48 48 48 48 47 48 48 48 48 48 48 47 47 47 46 46 46 46 46 46 46 46 46 46 46 46 46 46 45 45 45 45 44 44 44 43 43 43 43 43 42 42 41 41 41 41 41 41 40
47 47 47 47 47 47 47 48 48 48 48 47 47 47 48 47 48 48 48 48 47 47 47 47 47 47 46 46 47 47 47 46 46 45 45 45 45 45 45 45 45 45 45 45 45 45 44 44 44 44 44 44 43 43 42 42 42 42 42 42 42 42 41 41 41 41 41 41 40
48 48 48 47 47 47 47 47 47 47 47 47 47 47 47 47 47 47 47 47 47 47 46 46 46 46 46 46 46 46 46 45 45 45 44 44 45 44 44 44 45 45 45 45 44 44 44 43 43 43 43 42 42 42 41 41 41 41 40 41 41 41 41 41 41 41 41 40 39
48 47 47 47 47 47 47 47 46 46 46 46 46 46 46 46 46 46 46 46 47 46 46 46 46 45 45 45 45 45 45 45 44 44 44 44 44 44 44 44 44 44 44 44 44 43 43 43 42 42 42 41 41 41 41 40 40 40 40 40 40 40 41 41 41 41 41 40 39
47 47 47 47 47 46 46 46 46 46 46 46 46 46 46 46 46 46 46 46 46 46 46 45 45 45 45 45 45 45 44 44 44 44 44 43 43 43 43 43 43 43 43 43 43 43 43 42 42 42 41 41 41 40 40 40 40 40 40 40 40 40 40 40 40 40 40 39 38
46 46 47 47 46 46 46 46 46 46 46 46 45 45 45 45 45 45 45 45 45 45 45 45 45 44 44 44 44 44 43 44 44 43 43 43 43 43 43 43 43 43 43 43 42 42 42 42 42 42 42 41 41 40 40 40 39 39 39 39 39 40 40 40 39 39 38 37 36
46 46 46 46 46 46 46 46 46 46 45 45 45 45 45 45 45 45 45 45 45 44 44 44 44 44 44 43 43 43 43 43 43 43 43 43 42 42 42 42 42 42 42 42 42 42 42 42 42 42 42 41 41 40 40 40 40 39 39 39 39 39 39 39 38 37 36 35 35
46 46 46 46 46 46 46 45 45 45 45 44 44 44 44 44 44 44 44 44 44 44 44 44 44 43 43 44 43 43 43 42 42 42 42 42 42 42 42 42 41 41 41 41 41 41 41 41 41 41 41 41 40 40 40 40 40 39 39 38 38 38 38 38 37 37 36 35 34
45 46 46 46 46 46 45 45 45 45 44 44 44 44 44 44 44 44 44 44 44 44 44 44 43 43 43 44 44 43 43 42 42 42 42 42 42 41 41 41 41 41 41 41 41 41 41 40 40 40 40 40 39 39 39 39 39 39 38 38 38 38 38 38 38 37 37 36 35
46 46 46 46 46 45 45 45 44 44 44 43 44 44 44 44 44 44 44 44 44 44 44 44 43 43 43 43 44 43 43 43 42 42 42 41 41 42 42 41 41 42 42 42 42 42 41 41 40 39 38 38 38 38 38 38 39 38 38 38 38 38 38 38 38 39 39 38 38
46 46 46 45 45 45 45 44 44 44 43 43 43 43 43 43 43 43 43 43 43 44 44 44 43 43 43 43 43 43 43 43 43 42 42 41 42 42 42 41 42 42 42 43 43 43 42 42 41 40 39 38 38 38 38 38 38 38 39 39 39 38 38 38 37 37 38 39 39
46 45 45 45 45 45 44 44 44 43 43 43 43 43 43 43 43 43 43 43 43 43 44 44 44 44 43 43 43 43 43 43 43 43 43 43 42 42 42 42 42 42 43 43 43 43 43 42 41 40 39 38 38 38 38 38 38 38 38 38 38 38 38 38 37 37 37 37 38
45 45 45 45 44 44 43 43 43 43 43 43 42 42 42 42 42 42 42 42 42 43 43 43 43 43 43 43 43 43 43 43 43 44 44 44 43 43 43 42 42 43 43 44 44 43 43 42 41 41 40 39 38 38 38 38 38 38 38 38 38 38 38 38 37 37 36 36 36
45 44 44 44 43 43 43 43 42 42 42 42 42 42 42 42 42 42 42 42 42 42 41 42 42 42 42 42 43 43 43 43 44 44 44 44 43 43 43 42 43 43 44 44 44 43 43 42 41 41 40 39 38 38 38 38 38 38 38 38 38 37 37 37 36 36 36 35 35
44 44 43 43 43 42 42 42 42 42 42 42 42 42 42 42 41 41 41 42 41 41 42 42 42 42 42 42 43 43 43 43 44 44 44 44 43 43 43 43 43 43 44 44 44 43 42 42 41 41 40 39 39 38 38 38 38 37 37 37 37 36 36 36 36 35 35 34 35
44 44 43 43 42 42 42 42 42 42 42 42 42 42 42 41 41 41 41 41 41 42 42 42 42 42 42 42 43 43 43 43 43 44 44 43 43 43 43 43 43 43 44 44 43 43 42 42 41 40 40 39 38 38 38 38 37 37 37 36 36 36 36 36 35 35 34 34 35
43 43 42 42 41 41 41 41 41 41 41 41 41 41 41 41 40 41 41 41 42 42 42 42 42 42 42 42 42 42 42 43 43 43 43 43 43 42 43 43 43 43 43 44 43 43 42 42 41 40 39 39 38 37 37 37 36 36 35 34 33 32 32 32 33 33 33 34 35
43 42 42 41 41 41 41 41 41 41 41 41 41 41 41 40 41 41 41 42 42 42 41 41 41 41 41 41 41 41 42 42 42 42 42 42 42 42 42 42 42 43 43 44 43 43 42 41 41 40 39 38 36 35 34 35 34 33 33 31 31 31 31 32 33 33 33 33 34
42 42 41 41 41 41 41 41 41 41 41 41 41 41 41 41 41 41 41 42 42 42 41 41 41 41 41 41 41 41 41 41 41 41 41 41 42 42 42 42 42 43 44 44 43 43 42 41 40 39 38 37 34 33 33 33 33 32 32 31 31 31 31 31 31 31 31 32 33
42 41 41 41 41 41 41 41 41 41 41 41 40 40 40 41 41 41 41 41 41 41 41 41 41 41 41 41 41 41 41 41 41 41 41 41 41 41 41 42 42 43 44 43 43 42 42 41 40 39 37 35 33 32 32 32 32 32 31 31 31 30 30 29 29 29 29 29 30
42 41 41 41 41 40 40 41 41 40 40 40 40 40 40 40 41 41 41 41 41 40 40 40 40 40 40 40 40 40 40 40 40 40 40 41 41 41 41 41 42 43 43 43 43 42 41 40 39 37 36 34 33 33 33 33 32 31 31 31 30 29 28 28 28 27 27 27 28
42 41 41 40 40 40 40 40 40 40 40 40 40 40 40 40 40 40 41 41 40 39 39 39 39 39 39 39 39 39 39 40 40 40 40 40 40 40 40 41 41 42 42 43 42 41 41 40 38 37 35 33 32 32 33 32 32 31 31 30 30 28 28 27 27 27 27 27 28
41 41 41 40 40 40 40 40 40 40 40 40 40 40 40 40 40 40 40 40 39 39 39 38 38 38 38 38 38 38 39 40 40 39 39 39 39 40 40 40 40 41 42 42 42 41 40 39 38 36 35 33 32 33 33 32 32 31 31 30 30 29 28 27 27 27 28 29 33
41 41 41 40 40 40 40 40 40 40 40 40 40 40 40 40 39 40 40 40 39 39 38 38 37 37 38 38 38 38 38 39 39 39 39 38 39 39 39 39 40 40 41 42 41 41 40 39 38 37 35 33 33 33 33 32 31 31 30 30 30 29 29 27 27 27 28 30 34
41 41 40 40 40 40 40 40 40 40 40 40 40 40 39 39 39 39 39 39 39 38 38 37 37 37 38 38 37 37 37 37 37 37 37 37 38 38 38 38 39 40 40 41 41 41 40 39 38 37 35 33 32 32 33 32 31 30 29 29 30 30 30 29 28 28 28 29 31
41 40 40 40 40 40 40 40 40 40 40 40 40 39 39 39 39 39 39 38 38 38 37 37 37 37 37 37 37 36 35 34 34 33 33 33 33 34 34 34 35 37 38 40 41 41 40 39 38 37 35 32 31 31 32 32 31 30 29 28 27 28 29 30 29 29 29 29 29
MSLP
1018.91 1018.91 1018.91 1018.91 1018.91 1018.91 1018.91 1018.87 1018.87 1018.87 1018.87 1018.83 1018.79 1018.75 1018.71 1018.71 1018.67 1018.59 1018.55 1018.55 1018.55 1018.47 1018.39 1018.31 1018.27 1018.23 1018.19 1018.15 1018.11 1018.11 1018.03 1017.99 1017.91 1017.87 1017.83 1017.83 1017.79 1017.71 1017.67 1017.67 1017.67 1017.63 1017.59 1017.55 1017.55 1017.55 1017.59 1017.63 1017.67 1017.75 1017.83 1017.87 1017.95 1017.99 1018.11 1018.19 1018.39 1018.51 1018.67 1018.79 1018.87 1018.95 1019.11 1019.27 1019.51 1019.63 1019.67 1019.67 1019.71
1018.87 1018.87 1018.87 1018.87 1018.87 1018.87 1018.87 1018.83 1018.83 1018.83 1018.83 1018.83 1018.75 1018.71 1018.71 1018.67 1018.63 1018.55 1018.55 1018.55 1018.51 1018.43 1018.39 1018.31 1018.27 1018.23 1018.19 1018.15 1018.11 1018.11 1018.03 1017.95 1017.83 1017.79 1017.75 1017.67 1017.67 1017.63 1017.59 1017.55 1017.55 1017.51 1017.47 1017.43 1017.43 1017.47 1017.51 1017.55 1017.59 1017.67 1017.71 1017.83 1017.91 1017.99 1018.07 1018.11 1018.27 1018.39 1018.55 1018.67 1018.83 1018.91 1019.03 1019.15 1019.31 1019.43 1019.55 1019.59 1019.67
1018.83 1018.83 1018.83 1018.83 1018.83 1018.83 1018.79 1018.71 1018.71 1018.71 1018.71 1018.75 1018.71 1018.67 1018.67 1018.67 1018.63 1018.55 1018.47 1018.43 1018.43 1018.47 1018.43 1018.35 1018.27 1018.27 1018.19 1018.15 1018.11 1018.07 1017.99 1017.91 1017.83 1017.71 1017.67 1017.55 1017.51 1017.51 1017.51 1017.47 1017.43 1017.39 1017.39 1017.39 1017.35 1017.35 1017.39 1017.39 1017.51 1017.59 1017.67 1017.71 1017.83 1017.91 1017.99 1018.11 1018.15 1018.27 1018.39 1018.55 1018.67 1018.83 1018.91 1019.03 1019.15 1019.31 1019.43 1019.55 1019.67
1018.83 1018.79 1018.75 1018.71 1018.67 1018.67 1018.67 1018.63 1018.59 1018.59 1018.63 1018.67 1018.67 1018.67 1018.67 1018.67 1018.59 1018.55 1018.51 1018.51 1018.51 1018.51 1018.43 1018.39 1018.31 1018.27 1018.23 1018.15 1018.07 1018.03 1017.99 1017.91 1017.83 1017.71 1017.59 1017.51 1017.43 1017.39 1017.39 1017.39 1017.35 1017.27 1017.27 1017.27 1017.19 1017.19 1017.23 1017.27 1017.39 1017.47 1017.55 1017.63 1017.67 1017.75 1017.87 1018.03 1018.11 1018.23 1018.31 1018.47 1018.59 1018.67 1018.83 1018.95 1019.11 1019.27 1019.47 1019.63 1019.79
1018.83 1018.79 1018.71 1018.67 1018.63 1018.59 1018.59 1018.59 1018.59 1018.59 1018.59 1018.63 1018.63 1018.63 1018.63 1018.63 1018.63 1018.59 1018.55 1018.55 1018.51 1018.47 1018.39 1018.39 1018.35 1018.27 1018.23 1018.15 1018.11 1017.99 1017.91 1017.83 1017.75 1017.67 1017.55 1017.47 1017.39 1017.31 1017.27 1017.27 1017.23 1017.19 1017.15 1017.11 1017.11 1017.11 1017.11 1017.23 1017.31 1017.39 1017.43 1017.51 1017.55 1017.67 1017.75 1017.91 1018.07 1018.23 1018.39 1018.55 1018.67 1018.79 1018.95 1019.11 1019.27 1019.43 1019.63 1019.83 1020.03
1018.75 1018.71 1018.67 1018.67 1018.63 1018.59 1018.59 1018.59 1018.59 1018.63 1018.63 1018.67 1018.63 1018.59 1018.55 1018.55 1018.55 1018.59 1018.55 1018.51 1018.43 1018.43 1018.39 1018.39 1018.31 1018.23 1018.11 1018.07 1017.99 1017.91 1017.83 1017.71 1017.63 1017.55 1017.51 1017.39 1017.31 1017.27 1017.19 1017.15 1017.11 1017.07 1017.07 1017.07 1017.03 1016.99 1017.03 1017.15 1017.27 1017.31 1017.35 1017.43 1017.55 1017.63 1017.71 1017.87 1018.03 1018.27 1018.47 1018.71 1018.83 1018.95 1019.03 1019.23 1019.39 1019.55 1019.71 1019.91 1020.11
1018.75 1018.71 1018.67 1018.67 1018.63 1018.59 1018.55 1018.59 1018.59 1018.63 1018.67 1018.67 1018.63 1018.59 1018.55 1018.55 1018.59 1018.55 1018.55 1018.55 1018.43 1018.39 1018.35 1018.27 1018.19 1018.11 1018.07 1017.99 1017.87 1017.79 1017.71 1017.63 1017.55 1017.47 1017.39 1017.35 1017.27 1017.19 1017.11 1017.11 1017.03 1016.99 1016.95 1016.95 1016.95 1016.95 1016.99 1017.11 1017.19 1017.31 1017.39 1017.55 1017.67 1017.79 1017.83 1017.91 1018.11 1018.31 1018.55 1018.79 1018.95 1019.07 1019.19 1019.35 1019.47 1019.63 1019.83 1019.99 1020.15
1018.83 1018.79 1018.75 1018.71 1018.67 1018.63 1018.59 1018.59 1018.59 1018.59 1018.55 1018.55 1018.55 1018.55 1018.59 1018.59 1018.55 1018.55 1018.51 1018.51 1018.39 1018.35 1018.27 1018.23 1018.15 1018.11 1018.03 1017.95 1017.83 1017.75 1017.67 1017.59 1017.55 1017.47 1017.39 1017.35 1017.27 1017.19 1017.11 1017.11 1017.03 1016.99 1016.95 1016.95 1016.95 1016.99 1017.03 1017.11 1017.27 1017.43 1017.55 1017.67 1017.79 1017.87 1017.95 1018.03 1018.19 1018.39 1018.59 1018.83 1019.03 1019.19 1019.35 1019.47 1019.63 1019.79 1019.95 1020.07 1020.23
1018.83 1018.83 1018.83 1018.79 1018.71 1018.67 1018.59 1018.59 1018.55 1018.55 1018.55 1018.55 1018.55 1018.55 1018.59 1018.59 1018.55 1018.55 1018.47 1018.39 1018.35 1018.31 1018.27 1018.23 1018.11 1018.07 1017.99 1017.91 1017.83 1017.79 1017.67 1017.63 1017.55 1017.55 1017.43 1017.39 1017.35 1017.27 1017.23 1017.15 1017.11 1017.11 1017.07 1017.03 1017.03 1017.07 1017.15 1017.31 1017.47 1017.59 1017.67 1017.71 1017.83 1017.95 1018.03 1018.11 1018.27 1018.51 1018.71 1018.95 1019.15 1019.31 1019.47 1019.67 1019.83 1019.95 1020.07 1020.19 1020.39
1018.83 1018.83 1018.83 1018.83 1018.75 1018.67 1018.63 1018.59 1018.59 1018.55 1018.55 1018.55 1018.59 1018.55 1018.55 1018.55 1018.55 1018.51 1018.43 1018.39 1018.35 1018.31 1018.27 1018.23 1018.11 1018.07 1017.99 1017.95 1017.87 1017.83 1017.75 1017.67 1017.67 1017.59 1017.55 1017.51 1017.43 1017.39 1017.35 1017.27 1017.27 1017.23 1017.19 1017.23 1017.19 1017.23 1017.31 1017.47 1017.63 1017.71 1017.79 1017.83 1017.91 1018.03 1018.11 1018.27 1018.39 1018.59 1018.83 1019.07 1019.27 1019.39 1019.59 1019.79 1019.91 1020.03 1020.19 1020.35 1020.55
1018.91 1018.91 1018.91 1018.83 1018.83 1018.75 1018.67 1018.63 1018.59 1018.59 1018.59 1018.63 1018.59 1018.59 1018.55 1018.55 1018.55 1018.51 1018.47 1018.43 1018.39 1018.31 1018.27 1018.23 1018.15 1018.07 1018.03 1017.99 1017.95 1017.87 1017.83 1017.75 1017.75 1017.67 1017.67 1017.63 1017.55 1017.55 1017.47 1017.43 1017.39 1017.35 1017.35 1017.39 1017.39 1017.39 1017.51 1017.63 1017.71 1017.83 1017.91 1017.99 1018.11 1018.19 1018.31 1018.43 1018.55 1018.67 1018.95 1019.23 1019.39 1019.55 1019.75 1019.99 1020.11 1020.19 1020.35 1020.51 1020.67
1018.95 1018.95 1018.95 1018.95 1018.87 1018.83 1018.71 1018.67 1018.63 1018.67 1018.67 1018.67 1018.63 1018.59 1018.59 1018.55 1018.55 1018.55 1018.51 1018.47 1018.39 1018.39 1018.35 1018.27 1018.23 1018.15 1018.11 1018.07 1018.03 1017.99 1017.95 1017.87 1017.83 1017.83 1017.75 1017.75 1017.67 1017.67 1017.59 1017.55 1017.55 1017.51 1017.51 1017.55 1017.55 1017.55 1017.67 1017.75 1017.83 1017.95 1018.07 1018.19 1018.27 1018.39 1018.51 1018.59 1018.67 1018.83 1019.11 1019.43 1019.59 1019.75 1019.99 1020.19 1020.31 1020.43 1020.55 1020.71 1020.87
1018.95 1018.95 1018.95 1018.95 1018.95 1018.83 1018.71 1018.67 1018.67 1018.67 1018.67 1018.67 1018.63 1018.63 1018.63 1018.63 1018.59 1018.55 1018.55 1018.47 1018.47 1018.43 1018.39 1018.39 1018.31 1018.27 1018.23 1018.19 1018.11 1018.11 1018.03 1017.99 1017.99 1017.95 1017.91 1017.87 1017.83 1017.83 1017.79 1017.71 1017.71 1017.67 1017.67 1017.71 1017.71 1017.75 1017.83 1017.91 1017.99 1018.11 1018.23 1018.35 1018.51 1018.59 1018.67 1018.75 1018.83 1018.99 1019.27 1019.55 1019.75 1019.95 1020.15 1020.39 1020.55 1020.67 1020.83 1020.95 1021.07
1018.99 1018.95 1018.95 1018.95 1018.91 1018.83 1018.75 1018.71 1018.67 1018.67 1018.67 1018.67 1018.67 1018.67 1018.67 1018.67 1018.67 1018.63 1018.59 1018.59 1018.55 1018.55 1018.51 1018.47 1018.43 1018.39 1018.39 1018.31 1018.27 1018.23 1018.19 1018.11 1018.11 1018.07 1018.03 1018.03 1018.03 1017.99 1017.99 1017.95 1017.91 1017.91 1017.91 1017.99 1017.99 1017.99 1018.03 1018.11 1018.23 1018.31 1018.39 1018.55 1018.71 1018.83 1018.95 1018.95 1019.07 1019.23 1019.39 1019.59 1019.83 1020.11 1020.35 1020.55 1020.71 1020.83 1020.95 1021.11 1021.27
1018.99 1018.99 1018.99 1018.95 1018.95 1018.87 1018.83 1018.75 1018.67 1018.67 1018.71 1018.67 1018.67 1018.71 1018.67 1018.67 1018.67 1018.67 1018.67 1018.63 1018.63 1018.59 1018.59 1018.55 1018.55 1018.55 1018.55 1018.47 1018.43 1018.39 1018.31 1018.31 1018.27 1018.23 1018.23 1018.23 1018.19 1018.19 1018.19 1018.15 1018.15 1018.11 1018.15 1018.19 1018.23 1018.27 1018.31 1018.39 1018.47 1018.55 1018.67 1018.79 1018.95 1019.11 1019.19 1019.27 1019.35 1019.47 1019.67 1019.83 1019.99 1020.23 1020.43 1020.63 1020.83 1020.95 1021.11 1021.23 1021.39
1018.99 1018.99 1018.99 1018.95 1018.95 1018.87 1018.83 1018.75 1018.71 1018.71 1018.71 1018.75 1018.75 1018.75 1018.75 1018.75 1018.71 1018.71 1018.67 1018.67 1018.67 1018.67 1018.67 1018.67 1018.67 1018.67 1018.67 1018.59 1018.55 1018.51 1018.47 1018.43 1018.39 1018.39 1018.39 1018.39 1018.39 1018.39 1018.39 1018.39 1018.39 1018.39 1018.39 1018.39 1018.47 1018.55 1018.63 1018.67 1018.75 1018.83 1018.91 1019.03 1019.19 1019.31 1019.43 1019.51 1019.59 1019.75 1019.99 1020.15 1020.31 1020.47 1020.59 1020.67 1020.83 1020.99 1021.15 1021.31 1021.47
1018.99 1018.95 1018.95 1018.95 1018.91 1018.83 1018.83 1018.79 1018.79 1018.79 1018.79 1018.83 1018.83 1018.79 1018.79 1018.79 1018.79 1018.75 1018.75 1018.75 1018.75 1018.75 1018.75 1018.75 1018.79 1018.79 1018.75 1018.71 1018.67 1018.67 1018.63 1018.59 1018.59 1018.55 1018.55 1018.55 1018.59 1018.59 1018.59 1018.59 1018.59 1018.59 1018.63 1018.63 1018.67 1018.79 1018.87 1018.95 1019.03 1019.11 1019.23 1019.31 1019.47 1019.59 1019.67 1019.75 1019.87 1020.07 1020.27 1020.47 1020.67 1020.75 1020.83 1020.87 1020.95 1021.11 1021.27 1021.43 1021.59
1018.95 1018.95 1018.95 1018.95 1018.87 1018.83 1018.83 1018.83 1018.83 1018.83 1018.83 1018.87 1018.87 1018.83 1018.83 1018.83 1018.83 1018.83 1018.83 1018.83 1018.79 1018.79 1018.83 1018.83 1018.87 1018.83 1018.83 1018.83 1018.83 1018.83 1018.79 1018.83 1018.79 1018.79 1018.79 1018.79 1018.79 1018.79 1018.79 1018.83 1018.83 1018.83 1018.83 1018.83 1018.95 1019.03 1019.11 1019.23 1019.31 1019.39 1019.51 1019.63 1019.79 1019.91 1019.99 1019.99 1020.15 1020.31 1020.55 1020.75 1020.95 1021.03 1021.11 1021.11 1021.15 1021.27 1021.39 1021.55 1021.75
1018.95 1018.95 1018.95 1018.95 1018.91 1018.87 1018.87 1018.87 1018.91 1018.91 1018.91 1018.95 1018.95 1018.95 1018.95 1018.95 1018.91 1018.91 1018.91 1018.91 1018.87 1018.87 1018.91 1018.91 1018.95 1018.95 1018.91 1018.87 1018.91 1018.91 1018.95 1018.99 1018.95 1018.95 1018.99 1018.99 1018.99 1018.99 1018.99 1019.03 1019.03 1019.07 1019.07 1019.11 1019.19 1019.27 1019.39 1019.47 1019.55 1019.67 1019.79 1019.91 1020.07 1020.15 1020.27 1020.31 1020.43 1020.59 1020.79 1020.99 1021.15 1021.27 1021.35 1021.39 1021.39 1021.51 1021.59 1021.67 1021.83
1018.95 1018.99 1018.99 1018.95 1018.95 1018.95 1018.95 1018.95 1018.95 1018.95 1018.95 1018.99 1018.99 1018.99 1018.99 1018.99 1018.95 1018.95 1018.95 1018.99 1018.95 1018.95 1018.95 1018.95 1018.99 1018.99 1018.99 1018.99 1018.99 1019.07 1019.11 1019.15 1019.11 1019.15 1019.19 1019.19 1019.19 1019.23 1019.23 1019.27 1019.27 1019.27 1019.31 1019.35 1019.43 1019.51 1019.59 1019.67 1019.79 1019.87 1020.03 1020.19 1020.31 1020.39 1020.51 1020.59 1020.71 1020.87 1021.07 1021.27 1021.39 1021.51 1021.55 1021.63 1021.71 1021.79 1021.83 1021.87 1021.99
1019.03 1019.03 1019.03 1019.03 1019.03 1018.99 1018.99 1019.03 1019.03 1019.03 1019.07 1019.11 1019.07 1019.07 1019.07 1019.11 1019.07 1019.07 1019.07 1019.07 1019.07 1019.03 1019.07 1019.11 1019.07 1019.11 1019.11 1019.11 1019.15 1019.23 1019.27 1019.31 1019.31 1019.31 1019.35 1019.39 1019.39 1019.39 1019.43 1019.47 1019.43 1019.47 1019.55 1019.59 1019.67 1019.75 1019.83 1019.91 1019.99 1020.11 1020.23 1020.39 1020.51 1020.63 1020.75 1020.83 1020.95 1021.11 1021.31 1021.47 1021.59 1021.67 1021.83 1021.95 1022.07 1022.11 1022.11 1022.11 1022.19
1019.03 1019.07 1019.11 1019.11 1019.11 1019.11 1019.11 1019.11 1019.11 1019.11 1019.15 1019.15 1019.15 1019.15 1019.15 1019.19 1019.19 1019.19 1019.15 1019.15 1019.15 1019.15 1019.19 1019.23 1019.27 1019.27 1019.27 1019.27 1019.31 1019.39 1019.43 1019.47 1019.51 1019.51 1019.55 1019.55 1019.59 1019.63 1019.67 1019.67 1019.67 1019.71 1019.79 1019.83 1019.91 1019.99 1020.03 1020.11 1020.23 1020.27 1020.39 1020.55 1020.67 1020.83 1020.95 1021.11 1021.23 1021.39 1021.55 1021.67 1021.83 1021.91 1022.07 1022.23 1022.31 1022.39 1022.39 1022.39 1022.51
1019.11 1019.11 1019.11 1019.15 1019.15 1019.15 1019.15 1019.19 1019.19 1019.23 1019.23 1019.27 1019.27 1019.27 1019.27 1019.27 1019.31 1019.31 1019.27 1019.27 1019.27 1019.27 1019.35 1019.39 1019.39 1019.39 1019.43 1019.43 1019.47 1019.51 1019.55 1019.55 1019.63 1019.67 1019.71 1019.71 1019.79 1019.83 1019.83 1019.87 1019.95 1019.99 1020.03 1020.11 1020.11 1020.19 1020.27 1020.35 1020.43 1020.51 1020.63 1020.75 1020.91 1021.03 1021.15 1021.31 1021.43 1021.55 1021.71 1021.83 1021.99 1022.11 1022.27 1022.39 1022.51 1022.55 1022.59 1022.67 1022.83
1019.11 1019.15 1019.19 1019.23 1019.23 1019.23 1019.23 1019.27 1019.27 1019.31 1019.35 1019.39 1019.39 1019.39 1019.39 1019.39 1019.39 1019.39 1019.39 1019.39 1019.39 1019.39 1019.47 1019.55 1019.55 1019.55 1019.59 1019.63 1019.63 1019.63 1019.63 1019.67 1019.71 1019.79 1019.87 1019.91 1019.95 1019.99 1019.99 1020.03 1020.11 1020.15 1020.27 1020.31 1020.35 1020.39 1020.43 1020.55 1020.67 1020.79 1020.87 1020.99 1021.15 1021.27 1021.39 1021.55 1021.67 1021.79 1021.87 1021.99 1022.11 1022.27 1022.39 1022.55 1022.63 1022.67 1022.75 1022.83 1022.95
1019.11 1019.19 1019.23 1019.23 1019.27 1019.27 1019.31 1019.31 1019.35 1019.39 1019.43 1019.47 1019.47 1019.51 1019.51 1019.51 1019.51 1019.51 1019.51 1019.51 1019.55 1019.55 1019.55 1019.63 1019.67 1019.71 1019.71 1019.75 1019.75 1019.75 1019.79 1019.79 1019.83 1019.87 1019.95 1019.99 1020.03 1020.11 1020.11 1020.19 1020.27 1020.31 1020.39 1020.47 1020.51 1020.55 1020.59 1020.71 1020.83 1020.99 1021.15 1021.27 1021.43 1021.55 1021.67 1021.75 1021.87 1021.99 1022.07 1022.11 1022.23 1022.35 1022.51 1022.63 1022.71 1022.75 1022.79 1022.87 1022.95
1019.15 1019.23 1019.27 1019.27 1019.31 1019.35 1019.39 1019.39 1019.47 1019.51 1019.55 1019.55 1019.59 1019.59 1019.59 1019.63 1019.63 1019.63 1019.63 1019.63 1019.67 1019.67 1019.67 1019.71 1019.79 1019.83 1019.83 1019.87 1019.87 1019.87 1019.87 1019.91 1019.95 1019.99 1019.99 1020.07 1020.11 1020.19 1020.27 1020.31 1020.39 1020.43 1020.51 1020.55 1020.63 1020.67 1020.79 1020.91 1021.03 1021.19 1021.35 1021.47 1021.59 1021.71 1021.87 1021.99 1022.07 1022.11 1022.23 1022.27 1022.35 1022.43 1022.55 1022.67 1022.83 1022.91 1022.95 1022.95 1022.99
1019.19 1019.27 1019.27 1019.35 1019.35 1019.39 1019.43 1019.47 1019.55 1019.55 1019.63 1019.67 1019.67 1019.71 1019.75 1019.75 1019.75 1019.75 1019.75 1019.75 1019.79 1019.79 1019.83 1019.83 1019.87 1019.91 1019.99 1019.99 1019.99 1019.99 1020.03 1020.03 1020.07 1020.11 1020.11 1020.11 1020.19 1020.27 1020.35 1020.39 1020.51 1020.55 1020.63 1020.67 1020.71 1020.83 1020.95 1021.07 1021.23 1021.39 1021.55 1021.67 1021.75 1021.87 1021.99 1022.11 1022.23 1022.31 1022.39 1022.47 1022.55 1022.59 1022.67 1022.75 1022.87 1022.99 1023.07 1023.11 1023.15
1019.27 1019.31 1019.35 1019.39 1019.43 1019.51 1019.55 1019.59 1019.67 1019.67 1019.71 1019.79 1019.79 1019.83 1019.83 1019.87 1019.87 1019.87 1019.91 1019.91 1019.95 1019.91 1019.95 1019.99 1019.99 1020.03 1020.07 1020.11 1020.11 1020.11 1020.11 1020.15 1020.19 1020.23 1020.23 1020.27 1020.27 1020.35 1020.43 1020.55 1020.59 1020.67 1020.71 1020.79 1020.87 1020.95 1021.11 1021.23 1021.39 1021.55 1021.67 1021.83 1021.95 1021.99 1022.11 1022.23 1022.35 1022.47 1022.55 1022.59 1022.67 1022.75 1022.83 1022.87 1022.95 1023.11 1023.23 1023.31 1023.39
1019.27 1019.35 1019.39 1019.43 1019.51 1019.55 1019.59 1019.67 1019.71 1019.79 1019.83 1019.87 1019.87 1019.91 1019.95 1019.99 1019.99 1019.99 1020.03 1020.07 1020.07 1020.07 1020.11 1020.11 1020.11 1020.15 1020.15 1020.19 1020.23 1020.27 1020.27 1020.27 1020.27 1020.31 1020.35 1020.39 1020.39 1020.51 1020.55 1020.67 1020.71 1020.79 1020.83 1020.91 1020.99 1021.15 1021.27 1021.43 1021.55 1021.71 1021.83 1021.99 1022.07 1022.15 1022.27 1022.35 1022.43 1022.55 1022.67 1022.75 1022.83 1022.91 1022.95 1023.07 1023.15 1023.27 1023.39 1023.55 1023.59
1019.35 1019.39 1019.43 1019.55 1019.55 1019.63 1019.71 1019.79 1019.83 1019.87 1019.91 1019.99 1019.99 1019.99 1020.03 1020.07 1020.11 1020.11 1020.15 1020.19 1020.19 1020.19 1020.19 1020.19 1020.19 1020.23 1020.27 1020.27 1020.31 1020.35 1020.39 1020.39 1020.43 1020.43 1020.43 1020.47 1020.55 1020.63 1020.67 1020.75 1020.83 1020.87 1020.95 1021.07 1021.15 1021.27 1021.39 1021.55 1021.67 1021.83 1021.99 1022.11 1022.19 1022.27 1022.39 1022.51 1022.59 1022.67 1022.83 1022.87 1022.99 1023.07 1023.15 1023.27 1023.39 1023.47 1023.55 1023.67 1023.67
1019.39 1019.43 1019.51 1019.59 1019.63 1019.67 1019.79 1019.83 1019.91 1019.99 1019.99 1019.99 1020.03 1020.11 1020.11 1020.15 1020.19 1020.27 1020.27 1020.27 1020.31 1020.31 1020.31 1020.31 1020.31 1020.35 1020.39 1020.39 1020.43 1020.43 1020.51 1020.55 1020.55 1020.55 1020.55 1020.59 1020.67 1020.75 1020.83 1020.87 1020.95 1020.99 1021.11 1021.19 1021.27 1021.39 1021.51 1021.67 1021.83 1021.99 1022.11 1022.27 1022.35 1022.47 1022.55 1022.63 1022.71 1022.83 1022.91 1023.03 1023.15 1023.27 1023.31 1023.39 1023.51 1023.63 1023.67 1023.71 1023.71
1019.43 1019.51 1019.59 1019.67 1019.71 1019.83 1019.87 1019.91 1019.99 1020.03 1020.07 1020.11 1020.11 1020.15 1020.19 1020.27 1020.31 1020.35 1020.39 1020.39 1020.39 1020.43 1020.43 1020.39 1020.43 1020.47 1020.51 1020.55 1020.59 1020.63 1020.67 1020.67 1020.67 1020.71 1020.75 1020.79 1020.83 1020.91 1020.95 1020.99 1021.07 1021.15 1021.27 1021.27 1021.39 1021.55 1021.67 1021.79 1021.99 1022.11 1022.27 1022.39 1022.51 1022.63 1022.75 1022.83 1022.91 1023.03 1023.15 1023.31 1023.39 1023.51 1023.55 1023.63 1023.71 1023.79 1023.79 1023.79 1023.79
1019.51 1019.55 1019.67 1019.71 1019.79 1019.83 1019.95 1019.99 1020.03 1020.11 1020.11 1020.15 1020.19 1020.27 1020.31 1020.35 1020.39 1020.43 1020.47 1020.47 1020.47 1020.51 1020.51 1020.55 1020.55 1020.59 1020.67 1020.67 1020.71 1020.75 1020.83 1020.83 1020.83 1020.87 1020.91 1020.95 1021.03 1021.11 1021.11 1021.19 1021.27 1021.31 1021.39 1021.43 1021.55 1021.67 1021.83 1021.99 1022.11 1022.27 1022.47 1022.63 1022.79 1022.91 1023.03 1023.07 1023.19 1023.27 1023.39 1023.55 1023.67 1023.71 1023.79 1023.79 1023.83 1023.83 1023.83 1023.87 1023.91
1019.55 1019.59 1019.67 1019.75 1019.83 1019.87 1019.99 1020.03 1020.11 1020.15 1020.19 1020.23 1020.27 1020.31 1020.39 1020.39 1020.43 1020.51 1020.51 1020.55 1020.59 1020.63 1020.67 1020.67 1020.71 1020.75 1020.79 1020.83 1020.87 1020.91 1020.95 1020.99 1021.03 1021.11 1021.11 1021.19 1021.19 1021.27 1021.27 1021.31 1021.43 1021.47 1021.51 1021.59 1021.67 1021.83 1021.99 1022.19 1022.35 1022.51 1022.67 1022.83 1023.03 1023.15 1023.27 1023.31 1023.39 1023.51 1023.63 1023.71 1023.83 1023.87 1023.91 1023.95 1023.95 1023.99 1023.99 1024.03 1024.03
1019.55 1019.67 1019.75 1019.83 1019.83 1019.91 1019.99 1020.07 1020.11 1020.19 1020.23 1020.27 1020.35 1020.39 1020.43 1020.47 1020.51 1020.55 1020.63 1020.67 1020.67 1020.75 1020.83 1020.87 1020.91 1020.91 1020.95 1020.99 1021.03 1021.07 1021.11 1021.15 1021.19 1021.23 1021.27 1021.31 1021.35 1021.39 1021.39 1021.47 1021.55 1021.63 1021.67 1021.75 1021.87 1022.03 1022.19 1022.35 1022.51 1022.67 1022.87 1023.07 1023.27 1023.39 1023.39 1023.47 1023.55 1023.67 1023.79 1023.87 1023.95 1024.03 1024.07 1024.11 1024.11 1024.15 1024.23 1024.23 1024.23
1019.59 1019.67 1019.75 1019.83 1019.87 1019.95 1020.03 1020.11 1020.15 1020.23 1020.27 1020.31 1020.39 1020.43 1020.51 1020.55 1020.59 1020.67 1020.67 1020.75 1020.83 1020.87 1020.95 1020.99 1021.07 1021.11 1021.15 1021.19 1021.23 1021.23 1021.27 1021.31 1021.35 1021.39 1021.47 1021.47 1021.55 1021.55 1021.59 1021.63 1021.67 1021.75 1021.83 1021.91 1022.07 1022.23 1022.39 1022.55 1022.75 1022.91 1023.11 1023.27 1023.43 1023.51 1023.55 1023.63 1023.75 1023.83 1023.95 1024.03 1024.11 1024.19 1024.23 1024.27 1024.27 1024.35 1024.39 1024.39 1024.39
1019.63 1019.67 1019.75 1019.83 1019.87 1019.99 1020.03 1020.11 1020.15 1020.27 1020.31 1020.39 1020.43 1020.51 1020.55 1020.59 1020.67 1020.75 1020.79 1020.83 1020.91 1020.95 1021.07 1021.15 1021.23 1021.27 1021.31 1021.35 1021.39 1021.43 1021.47 1021.47 1021.51 1021.55 1021.59 1021.67 1021.67 1021.71 1021.75 1021.79 1021.83 1021.91 1021.99 1022.11 1022.27 1022.39 1022.55 1022.79 1022.95 1023.11 1023.27 1023.43 1023.55 1023.63 1023.71 1023.83 1023.91 1023.99 1024.11 1024.15 1024.23 1024.31 1024.35 1024.39 1024.39 1024.47 1024.47 1024.47 1024.43
1019.67 1019.71 1019.79 1019.83 1019.91 1019.99 1020.07 1020.11 1020.19 1020.27 1020.35 1020.39 1020.51 1020.55 1020.59 1020.67 1020.75 1020.83 1020.87 1020.91 1020.95 1021.11 1021.19 1021.27 1021.35 1021.43 1021.51 1021.51 1021.55 1021.59 1021.63 1021.63 1021.67 1021.71 1021.79 1021.83 1021.91 1021.95 1021.95 1021.99 1022.03 1022.11 1022.19 1022.31 1022.43 1022.55 1022.71 1022.91 1023.07 1023.23 1023.39 1023.51 1023.59 1023.67 1023.83 1023.95 1023.99 1024.11 1024.19 1024.27 1024.35 1024.39 1024.47 1024.51 1024.55 1024.51 1024.51 1024.47 1024.35
1019.67 1019.75 1019.83 1019.83 1019.95 1020.03 1020.07 1020.11 1020.19 1020.27 1020.35 1020.43 1020.55 1020.63 1020.67 1020.75 1020.83 1020.91 1020.95 1021.03 1021.07 1021.15 1021.27 1021.39 1021.47 1021.55 1021.63 1021.63 1021.67 1021.75 1021.83 1021.83 1021.87 1021.91 1021.99 1022.07 1022.11 1022.11 1022.11 1022.15 1022.23 1022.27 1022.39 1022.43 1022.59 1022.71 1022.83 1022.99 1023.15 1023.31 1023.43 1023.55 1023.67 1023.79 1023.87 1023.99 1024.11 1024.19 1024.27 1024.35 1024.39 1024.47 1024.55 1024.55 1024.55 1024.55 1024.51 1024.47 1024.31
1019.67 1019.79 1019.83 1019.87 1019.99 1020.03 1020.11 1020.15 1020.27 1020.31 1020.39 1020.51 1020.55 1020.67 1020.75 1020.83 1020.91 1020.99 1021.11 1021.19 1021.23 1021.31 1021.39 1021.55 1021.59 1021.67 1021.71 1021.75 1021.83 1021.91 1021.99 1022.11 1022.15 1022.19 1022.27 1022.27 1022.31 1022.35 1022.35 1022.39 1022.39 1022.43 1022.51 1022.55 1022.67 1022.83 1022.95 1023.11 1023.23 1023.39 1023.55 1023.71 1023.83 1023.83 1023.91 1024.03 1024.15 1024.27 1024.39 1024.43 1024.51 1024.55 1024.55 1024.59 1024.59 1024.59 1024.55 1024.55 1024.47
1019.71 1019.79 1019.83 1019.95 1019.99 1020.07 1020.11 1020.19 1020.27 1020.39 1020.47 1020.55 1020.63 1020.71 1020.83 1020.91 1021.03 1021.11 1021.23 1021.27 1021.35 1021.43 1021.55 1021.63 1021.71 1021.79 1021.83 1021.91 1021.99 1022.11 1022.23 1022.35 1022.47 1022.55 1022.59 1022.59 1022.59 1022.63 1022.67 1022.67 1022.67 1022.67 1022.67 1022.71 1022.79 1022.91 1023.03 1023.15 1023.31 1023.51 1023.67 1023.83 1023.95 1023.99 1023.99 1024.07 1024.19 1024.35 1024.47 1024.55 1024.59 1024.63 1024.63 1024.67 1024.63 1024.63 1024.67 1024.63 1024.63
Wind_Speed
2 1 1 1 1 1 1 1 2 2 2 2 2 2 2 2 2 2 2 2 2 3 3 3 3 4 4 5 5 6 6 6 6 6 6 7 7 7 7 7 7 8 8 8 8 7 7 8 7 6 5 5 5 6 5 5 6 6 6 6 5 6 7 7 7 7 8 8 6
1 2 2 2 2 1 1 2 2 2 2 2 2 2 2 2 2 2 3 3 3 3 3 3 3 4 5 6 6 6 6 7 7 7 7 7 7 7 7 7 7 8 8 8 8 7 6 7 7 6 5 4 5 5 5 5 6 7 7 8 6 5 5 6 6 7 8 8 6
1 1 1 1 1 1 1 1 2 2 2 2 2 2 2 2 2 3 3 2 2 2 2 3 3 4 5 6 6 5 6 6 7 7 7 7 7 6 6 5 6 7 7 8 8 7 7 7 6 5 5 4 5 5 5 5 6 7 7 7 5 5 4 4 5 6 5 4 4
1 1 1 1 2 2 2 2 2 2 2 1 1 2 2 2 2 2 2 2 2 2 2 3 3 4 4 5 5 6 6 6 6 6 7 6 6 6 6 5 6 6 7 7 8 8 8 7 6 5 5 6 6 6 5 4 6 5 4 4 3 3 3 3 2 2 2 2 3
1 1 2 2 2 2 2 2 2 2 2 1 1 1 1 1 1 2 2 2 2 2 2 3 3 3 3 4 5 6 6 6 6 6 5 6 6 6 5 5 6 6 6 6 7 8 8 8 5 5 5 6 6 5 5 5 5 4 3 2 2 2 2 3 3 3 3 4 4
2 2 2 2 2 2 2 2 2 2 1 1 1 1 1 1 1 1 1 2 2 2 3 3 3 3 3 4 4 5 5 5 4 5 5 5 5 4 5 5 5 5 5 6 7 8 8 7 5 4 4 4 3 3 4 6 5 4 4 3 3 3 3 3 3 4 4 5 6
3 3 3 2 2 2 1 1 1 1 0 0 0 0 1 1 1 1 1 2 2 2 2 2 2 2 3 3 3 3 3 3 2 2 2 2 2 3 3 4 4 5 5 6 6 7 7 6 4 3 2 2 2 3 4 5 5 5 5 5 3 3 4 5 4 4 5 8 8
2 2 2 2 2 1 1 0 1 1 1 1 1 1 1 1 1 1 1 1 1 1 1 1 2 2 2 2 2 2 2 1 1 1 1 1 1 1 1 1 2 3 3 4 4 4 4 3 2 2 2 2 2 3 4 6 7 7 7 6 4 4 4 5 4 5 6 8 8
2 2 2 2 1 0 0 1 2 2 2 2 2 1 1 1 1 1 1 1 1 1 1 1 1 1 2 2 2 2 2 2 2 2 2 2 2 2 2 1 1 1 1 0 2 3 4 3 3 3 3 3 3 4 6 8 8 8 8 6 6 5 5 5 6 6 7 8 9
1 1 1 1 1 1 2 2 3 3 3 3 2 2 2 2 1 1 1 1 1 1 1 1 2 2 2 3 3 3 2 2 2 3 3 3 3 3 3 3 3 3 3 3 3 4 4 4 4 4 3 4 5 6 7 8 9 9 8 6 6 7 8 7 7 8 8 8 9
0 0 0 0 1 2 3 3 3 3 3 3 3 3 3 2 2 2 1 1 1 2 2 2 3 3 3 3 3 3 3 3 3 3 4 4 4 4 4 4 4 4 4 3 3 4 4 4 5 5 6 5 6 7 7 8 9 10 9 7 8 9 9 8 8 8 8 9 10
0 0 0 1 1 2 3 3 3 3 3 4 3 3 3 3 2 2 2 2 2 3 3 3 3 3 3 3 3 3 3 3 3 4 4 4 5 5 5 5 5 5 5 5 4 4 4 5 6 7 7 7 6 6 7 8 10 11 10 9 9 9 9 8 7 7 7 9 9
1 1 1 1 2 3 3 4 3 3 3 4 3 3 3 3 3 3 3 3 3 3 3 4 4 4 4 3 3 3 3 4 4 4 4 5 5 5 5 6 6 6 6 5 5 5 5 6 7 8 8 7 6 6 7 8 10 11 11 11 10 9 9 8 8 8 8 9 9
1 2 2 2 2 3 3 4 3 3 3 3 3 3 3 3 3 3 3 3 3 3 3 4 4 4 4 4 4 4 4 5 5 5 6 6 6 6 6 6 6 6 6 6 6 6 7 7 7 8 8 8 8 7 8 8 9 10 11 11 11 10 10 9 9 9 9 9 9
2 2 2 2 2 2 3 3 3 3 3 3 3 3 3 3 3 3 3 3 3 3 3 4 4 4 4 5 5 5 5 5 6 6 6 6 6 6 6 6 7 7 7 7 7 7 8 8 8 8 9 9 9 9 8 9 9 9 10 10 10 10 10 10 9 9 9 9 9
2 2 2 2 2 2 2 2 2 3 3 3 3 3 3 2 2 3 3 3 3 3 4 4 4 4 4 5 5 6 6 6 6 7 7 7 7 7 7 7 7 7 8 8 8 8 8 8 9 9 9 10 9 9 9 10 10 10 10 9 9 10 10 10 10 9 9 9 9
2 2 2 2 2 3 3 3 3 3 3 3 3 3 3 2 2 3 3 3 3 4 4 5 4 4 4 5 5 6 6 6 6 7 7 7 7 7 8 8 8 8 8 9 9 9 9 9 9 9 10 10 10 10 10 10 11 11 10 10 9 9 9 9 9 10 10 10 10
2 3 3 3 3 3 3 3 3 3 3 3 3 3 3 3 3 3 3 4 4 5 5 5 5 5 5 5 5 5 6 6 7 7 7 7 8 8 8 8 8 8 9 9 10 10 10 10 10 10 9 10 9 9 10 10 11 11 11 10 9 9 9 9 9 9 9 10 9
3 2 2 3 3 4 4 4 4 4 4 4 4 4 4 4 4 4 4 4 5 5 6 6 6 6 6 6 6 6 6 7 7 8 8 8 8 8 8 8 8 9 9 9 10 10 10 10 10 10 10 10 10 10 10 10 11 11 11 10 9 9 9 9 9 9 9 9 9
2 2 2 3 3 4 4 4 4 4 4 4 4 4 4 4 5 5 5 5 5 6 6 6 6 6 7 7 7 7 7 6 7 8 8 8 8 8 8 8 9 9 9 9 9 10 10 10 10 11 11 10 10 10 10 10 11 11 10 9 9 9 9 9 9 8 8 8 8
2 2 2 3 3 4 4 4 4 4 4 4 5 5 5 5 5 5 6 6 6 6 6 6 7 7 7 7 8 7 7 6 7 7 8 8 8 8 8 8 8 9 9 9 9 10 10 10 10 10 10 10 10 10 10 10 10 10 10 9 9 9 9 9 8 7 7 7 7
3 3 3 3 4 4 4 4 5 5 5 5 5 5 5 5 5 5 5 6 6 7 7 6 7 7 7 7 7 7 7 6 7 7 7 7 8 8 8 8 8 9 9 9 9 9 10 10 10 10 10 10 10 10 10 10 10 11 11 10 10 10 9 8 7 7 7 7 7
3 3 3 4 4 4 5 5 5 5 5 5 5 5 5 5 5 5 5 6 6 7 7 6 6 7 7 7 7 7 7 7 7 7 7 7 8 8 8 8 8 8 8 8 8 8 9 9 10 10 10 10 10 10 10 10 10 10 11 11 11 10 9 8 7 7 7 6 6
4 4 3 4 4 5 5 5 5 5 5 5 5 5 5 5 5 5 6 6 6 7 7 6 6 6 7 7 7 7 8 8 8 8 8 8 8 8 8 7 8 8 7 6 7 8 8 8 8 8 9 9 9 9 9 10 10 10 11 11 11 10 10 9 8 7 7 6 6
5 4 4 4 4 5 5 5 5 5 5 5 5 5 5 5 5 5 6 6 7 7 7 7 6 6 6 7 7 7 8 8 9 9 8 8 8 8 7 7 7 6 6 7 10 11 11 9 8 8 7 8 8 8 9 9 9 10 10 10 11 11 10 10 9 9 8 6 5
5 5 5 5 5 5 5 5 5 5 5 5 5 5 5 5 5 6 6 6 7 7 7 7 7 6 6 6 7 7 7 7 7 8 8 8 8 8 7 6 6 5 6 8 12 13 13 13 11 10 8 7 8 8 8 8 9 9 10 10 10 10 10 10 9 7 6 5 5
5 5 5 5 5 5 5 5 5 5 5 5 5 5 5 5 5 5 6 6 6 7 7 7 7 6 6 6 7 7 7 6 7 7 8 8 8 8 7 6 6 5 7 10 13 14 14 14 14 12 10 8 8 8 8 8 9 9 9 9 9 9 10 10 8 7 6 6 7
5 5 5 6 6 6 6 6 6 6 6 5 5 5 5 5 5 6 6 6 6 6 6 6 6 5 5 5 6 7 7 7 6 7 7 8 8 8 7 6 6 7 9 12 13 14 14 14 14 13 12 9 8 8 8 8 8 8 8 8 8 8 9 8 8 7 6 6 6
5 5 6 6 6 6 6 6 6 6 6 6 6 6 6 6 6 6 6 6 6 5 5 5 4 4 4 5 6 6 6 7 6 6 7 8 8 8 8 7 7 9 11 14 14 14 14 14 14 14 12 10 7 6 6 7 7 7 7 6 7 7 7 7 6 6 5 5 5
6 6 6 6 6 6 6 6 6 6 6 5 6 6 6 6 6 6 6 6 5 5 5 4 5 5 6 6 6 6 6 6 6 7 8 9 9 9 8 8 8 9 11 14 14 14 14 14 14 14 13 11 9 7 6 6 6 6 6 6 6 6 6 6 6 5 5 4 4
6 6 6 6 6 6 6 6 6 6 6 5 6 6 6 6 6 6 5 5 5 5 5 6 6 7 7 6 6 6 7 6 6 7 8 9 9 9 9 9 9 9 11 14 14 14 14 14 14 14 13 11 9 7 6 6 7 6 6 6 5 5 5 5 5 4 4 4 4
6 6 6 7 7 6 6 6 6 6 6 6 6 6 6 6 6 5 5 5 6 6 6 7 7 8 8 7 7 7 7 7 7 7 8 8 9 9 9 8 8 9 11 13 14 14 14 14 14 13 13 11 9 7 6 6 6 6 5 5 5 4 3 3 3 3 3 3 4
6 6 7 7 7 7 6 6 6 6 6 7 7 7 7 6 6 6 5 5 6 6 7 7 8 8 8 7 7 7 7 7 8 8 9 9 9 9 8 8 7 9 11 13 14 14 14 14 14 13 13 11 8 6 5 5 5 5 5 5 4 4 4 3 3 3 3 3 3
6 7 7 7 7 7 7 7 7 7 7 7 7 7 7 7 6 6 6 5 6 6 6 7 7 7 7 7 7 7 7 7 7 8 8 8 8 8 7 6 6 8 11 13 14 14 14 14 14 13 12 11 7 6 6 6 5 5 5 5 5 4 4 4 3 3 3 3 3
7 7 7 7 7 7 7 7 7 7 7 7 7 7 7 7 7 6 6 6 6 6 6 6 6 6 6 6 6 7 7 7 7 8 8 8 8 7 7 7 7 9 12 13 14 14 14 14 14 13 12 9 6 6 6 7 6 6 6 6 5 5 4 4 3 3 2 2 2
6 7 7 7 7 7 7 7 7 7 7 7 7 7 7 6 6 6 6 7 7 7 6 6 6 6 6 6 6 6 7 7 7 7 7 7 7 7 7 7 8 10 12 13 13 14 14 14 13 13 11 8 6 5 6 6 6 6 6 6 5 4 4 3 3 2 1 1 1
6 7 7 7 7 7 7 7 7 7 7 7 7 7 7 7 6 6 6 7 7 7 7 6 6 6 6 6 6 6 6 6 7 7 7 7 7 7 7 7 8 10 11 13 13 13 13 14 13 12 10 7 6 5 5 5 5 5 5 5 4 4 3 2 2 1 1 0 1
6 6 7 7 7 7 7 7 7 7 8 8 7 7 7 6 6 6 6 6 7 7 7 7 6 6 6 6 6 6 6 6 7 7 7 7 6 6 7 7 8 9 10 12 13 13 13 13 13 12 10 7 6 6 5 5 5 5 5 4 4 3 2 2 1 1 1 1 1
6 6 6 7 7 7 7 7 7 7 8 7 7 7 6 6 6 6 6 6 6 7 7 7 7 6 6 7 7 7 7 7 7 7 7 6 6 6 6 7 7 8 9 11 12 13 13 13 13 12 10 7 6 5 5 5 5 4 4 3 3 3 2 2 2 2 2 3 4
5 6 6 6 7 7 7 7 7 7 7 7 7 7 6 6 6 6 6 6 6 7 7 7 7 7 7 7 7 7 7 7 6 6 6 5 6 6 6 5 6 6 8 10 12 12 13 13 13 12 10 6 5 4 4 5 5 4 4 3 2 2 2 2 2 2 2 3 5
5 5 6 6 6 6 7 7 7 7 6 7 7 7 6 6 6 6 6 6 6 6 6 6 7 7 7 7 7 7 7 6 6 6 5 5 5 5 4 4 3 4 5 8 11 12 13 13 13 12 10 6 4 4 4 4 5 4 4 2 2 2 2 2 2 2 2 3 3
Wind_Direction
163 168 176 183 187 192 201 214 219 219 219 219 223 224 224 227 239 243 244 239 245 252 258 262 265 272 278 281 282 284 285 285 282 277 272 268 266 264 263 262 259 255 252 247 238 229 220 213 211 208 206 205 206 204 200 194 191 192 193 193 197 200 203 205 207 206 204 203 200
171 180 186 193 198 203 211 217 219 219 218 218 222 222 223 226 235 240 240 233 239 248 258 265 268 273 278 282 284 284 284 283 281 279 274 268 265 262 260 258 254 250 246 243 235 227 218 210 208 207 205 202 201 200 198 192 191 194 197 197 197 197 199 203 208 208 207 204 198
209 203 200 198 198 205 214 221 222 221 217 218 221 225 228 232 239 245 248 247 253 260 266 271 276 280 284 287 289 287 284 282 281 279 276 271 267 261 256 251 248 244 240 236 229 222 214 206 206 205 203 200 199 199 197 191 190 190 191 192 191 190 194 201 204 204 200 193 176
253 238 230 223 223 225 230 240 249 247 242 236 233 233 236 239 247 258 267 277 277 270 266 271 281 285 286 287 288 287 284 280 277 275 273 271 268 263 258 253 248 242 236 231 224 218 211 204 204 204 203 201 202 200 196 185 183 180 174 172 164 165 168 165 157 150 140 120 107
276 257 245 242 242 243 244 249 257 263 267 273 270 261 253 248 254 266 274 274 264 261 263 268 273 276 278 279 281 281 280 277 271 267 266 265 263 259 254 250 246 240 233 226 219 214 208 202 204 205 206 203 203 199 189 175 166 150 121 92 88 96 104 101 94 94 96 95 90
295 286 273 262 258 256 254 252 254 259 268 288 293 290 281 264 262 262 265 266 268 271 271 268 268 272 276 277 278 279 277 272 264 260 259 260 255 248 241 239 236 232 227 221 216 211 206 202 204 205 204 201 195 177 163 162 145 124 103 87 82 85 93 99 102 104 106 107 105
298 298 297 292 282 272 265 256 244 233 213 163 111 348 328 330 302 286 280 285 291 289 286 280 285 287 288 286 288 287 284 276 265 256 254 256 252 242 234 228 224 222 219 216 211 208 204 199 192 180 162 133 118 117 125 133 125 118 111 105 99 97 100 104 106 108 111 114 112
300 304 310 313 307 300 292 348 126 132 132 120 99 68 34 7 339 319 307 300 301 299 299 306 309 306 308 314 320 321 323 330 336 338 334 328 326 300 255 230 220 217 214 210 202 193 182 163 137 122 116 106 105 110 117 121 120 118 115 111 104 98 97 102 105 110 114 115 112
315 318 322 322 327 347 83 99 108 108 106 101 94 90 84 73 39 4 341 335 335 332 332 341 338 347 3 14 9 8 12 21 26 26 24 25 26 26 28 34 44 50 65 129 147 137 126 106 97 97 104 113 118 121 122 122 119 116 112 109 106 102 100 102 107 111 113 112 109
333 331 331 336 21 94 107 105 105 104 103 101 100 100 100 96 83 66 47 32 16 15 13 13 15 29 38 38 32 31 32 39 44 44 42 40 40 40 41 44 47 48 49 48 77 95 100 99 100 102 104 109 116 119 120 120 116 113 110 108 109 108 107 108 110 112 112 110 109
358 346 358 70 104 111 113 110 108 108 108 109 109 106 99 90 78 67 57 49 47 42 35 28 32 40 46 45 41 41 44 50 57 60 58 55 53 54 55 57 59 61 62 60 72 86 97 104 107 107 106 105 110 113 116 116 112 110 108 107 109 109 108 107 108 109 109 110 109
134 128 123 126 124 121 117 114 114 115 115 114 111 104 94 80 65 58 56 57 59 53 43 33 37 41 45 46 44 46 51 57 62 64 64 60 58 58 60 62 64 65 68 69 78 89 100 107 111 110 108 105 105 109 112 114 111 110 109 109 108 107 106 105 105 105 107 109 108
137 129 124 123 124 120 118 116 116 115 112 109 103 94 84 70 57 53 54 58 57 51 44 39 40 41 42 42 46 50 55 59 62 63 62 60 58 58 59 61 63 66 67 70 77 88 98 104 106 107 107 104 103 106 110 113 113 113 113 113 110 108 107 107 106 106 106 107 107
124 118 117 119 119 119 119 118 115 110 102 97 91 83 74 65 57 54 57 59 56 52 49 47 46 43 42 44 50 55 59 62 64 65 64 61 58 58 59 61 63 66 69 70 74 82 89 95 98 101 102 101 101 102 104 107 109 113 115 116 115 114 112 111 110 109 108 107 106
114 112 114 117 116 117 117 115 110 102 95 91 84 79 75 70 62 62 65 66 62 59 58 57 55 51 48 50 56 60 63 65 66 67 66 64 62 62 62 64 65 68 72 75 76 79 83 88 92 95 97 99 99 99 98 98 100 103 107 112 115 116 116 116 115 113 112 111 110
118 116 115 114 112 108 107 105 102 97 92 88 84 82 82 79 71 70 72 75 73 71 69 66 65 61 57 56 60 63 65 66 67 67 67 66 66 66 66 68 70 73 77 80 80 80 81 84 87 90 93 96 96 96 95 94 94 94 97 101 107 111 114 116 115 115 114 114 113
130 124 119 113 105 98 94 94 95 93 89 85 84 83 83 82 78 76 77 81 84 84 80 75 73 70 67 64 63 64 66 67 67 68 69 70 70 70 70 71 74 77 80 83 83 83 83 82 83 85 88 90 92 93 93 93 92 92 93 94 99 103 107 110 111 112 112 112 113
137 128 121 113 104 99 95 92 92 90 88 85 84 82 81 82 82 81 80 82 87 88 87 83 80 77 75 74 71 69 69 70 71 71 72 73 73 73 73 74 75 78 80 83 84 85 85 84 84 84 84 86 88 89 91 92 92 93 93 93 95 98 100 103 106 108 110 111 112
140 132 122 115 106 101 98 94 92 91 89 88 86 84 84 84 86 86 84 82 85 88 90 89 85 82 80 79 78 76 75 75 76 76 76 75 75 75 75 76 76 78 80 82 83 85 85 86 86 86 86 86 87 88 89 90 92 93 95 96 96 97 98 99 101 103 106 109 111
139 132 123 114 106 102 98 95 93 93 92 90 87 85 85 84 84 85 85 84 85 86 88 89 88 86 84 82 82 81 79 78 80 79 78 76 76 76 77 78 79 80 81 82 84 85 87 87 88 89 89 90 90 90 90 90 92 94 95 96 96 95 94 94 95 97 99 101 104
132 126 120 111 106 103 101 98 96 95 93 90 87 85 83 82 81 82 84 86 85 85 85 86 88 88 87 86 85 84 83 81 81 81 80 79 77 77 78 79 80 81 82 83 85 87 88 90 92 93 94 94 94 93 93 93 94 95 95 95 94 92 90 88 88 88 88 89 93
124 117 112 108 106 105 103 101 98 95 92 89 87 85 83 81 81 81 83 85 84 84 83 83 85 86 88 89 89 89 88 84 82 81 81 81 80 78 78 78 79 81 82 84 87 89 90 92 94 95 97 97 97 97 97 98 98 98 98 98 96 94 91 87 85 83 82 83 89
123 117 113 110 109 107 105 102 99 96 93 89 87 86 84 84 82 82 81 83 85 85 85 84 83 84 86 89 92 93 93 90 86 83 82 82 82 80 79 78 78 79 81 84 87 90 92 92 93 94 95 98 98 100 101 102 103 104 104 104 102 99 95 90 88 87 87 88 93
129 128 124 118 114 110 107 104 101 98 95 91 90 89 88 88 86 84 83 83 85 87 88 88 85 85 86 89 91 93 94 94 92 89 87 84 83 82 81 80 80 81 82 86 91 93 95 95 94 94 95 97 99 101 103 105 107 108 109 109 107 105 102 98 97 97 98 100 105
136 133 129 122 118 114 110 106 104 101 98 95 93 92 91 91 90 88 87 87 88 90 91 91 90 89 89 90 91 92 92 93 94 94 92 88 86 85 84 83 83 85 88 93 97 98 99 100 99 99 99 100 102 102 103 105 109 111 113 113 112 111 109 106 103 100 98 97 101
138 134 129 125 121 116 112 108 106 103 100 97 94 92 91 91 91 91 92 93 94 94 95 95 94 94 94 94 93 92 91 92 94 96 96 94 92 90 88 87 87 89 93 100 102 102 103 103 103 104 105 105 107 107 108 108 110 113 114 114 115 115 115 112 106 97 85 75 71
137 133 129 125 120 116 112 109 106 104 101 98 95 92 91 90 90 91 93 95 96 97 96 95 96 97 97 96 95 95 94 95 97 98 100 101 100 98 96 94 94 97 102 106 106 106 106 106 107 107 107 107 108 111 112 112 112 112 113 114 116 117 116 115 108 98 85 72 67
136 132 128 123 119 115 112 110 107 105 103 101 99 97 94 91 90 90 92 95 96 95 95 95 96 97 98 96 96 97 98 100 102 104 105 105 104 102 101 101 103 106 109 110 109 109 109 110 110 110 110 109 109 111 112 114 114 114 114 115 116 116 115 112 106 99 90 81 74
135 131 126 121 118 115 113 111 110 109 107 106 104 102 99 95 93 93 95 97 96 97 98 100 101 100 99 100 100 100 100 101 104 106 106 105 103 102 103 105 106 109 111 112 111 111 112 113 114 114 114 114 113 114 115 115 116 116 115 115 114 112 110 107 104 101 97 92 85
135 131 127 123 120 117 116 115 115 114 112 110 108 106 103 101 100 100 100 100 100 101 103 106 105 103 103 103 103 103 102 102 104 106 107 106 104 104 105 106 108 111 113 115 114 114 115 115 116 117 117 115 113 112 114 116 117 117 116 113 111 109 108 109 110 110 109 106 98
136 132 128 124 122 119 118 118 117 116 115 113 112 110 108 106 105 105 106 106 106 106 105 104 103 103 102 102 101 101 101 101 102 104 106 105 105 105 105 105 108 111 114 116 115 115 116 117 118 119 119 118 116 115 116 118 117 116 113 109 105 103 104 107 109 111 113 113 108
135 132 129 126 124 123 122 121 120 118 117 116 115 114 112 111 110 110 110 110 109 108 107 105 104 103 102 100 97 96 96 98 101 102 103 103 104 104 104 105 107 111 114 116 116 116 117 118 120 120 120 119 114 110 109 112 110 105 99 91 86 85 86 92 100 105 107 107 104
135 133 131 130 129 128 127 125 124 122 122 121 120 118 117 116 115 113 112 110 110 109 108 107 106 106 104 102 99 96 96 96 98 99 100 100 103 104 105 105 107 112 115 117 117 118 119 120 121 121 119 115 107 98 93 97 96 93 88 83 79 78 80 87 93 96 96 94 92
137 136 134 134 133 132 131 129 128 127 126 124 123 122 122 121 120 118 115 112 109 106 104 103 103 103 102 101 100 100 99 98 97 97 97 99 102 105 108 110 111 116 119 120 120 121 121 122 122 121 117 111 101 94 93 95 94 93 91 89 84 79 75 75 76 78 81 84 87
141 140 139 138 137 136 135 134 133 132 130 128 127 126 126 125 124 122 118 114 108 103 99 96 96 96 96 96 97 100 101 101 98 97 97 99 101 106 110 114 116 120 122 122 122 122 123 123 122 120 116 109 103 100 101 101 99 98 96 94 88 80 71 66 62 61 62 70 86
146 145 144 143 141 140 139 138 137 135 134 133 132 132 131 129 126 123 120 116 110 105 101 98 96 96 96 95 95 97 99 100 98 97 97 98 101 106 112 116 118 121 123 122 123 123 123 124 123 120 117 111 108 106 106 104 103 102 100 97 91 81 69 62 57 52 50 57 98
152 150 148 147 145 144 143 142 141 139 139 138 137 136 134 131 127 124 122 119 115 111 107 103 101 100 99 98 97 97 97 98 99 98 97 96 99 105 110 114 116 119 121 123 124 125 126 126 126 124 121 116 115 113 112 109 108 106 102 97 90 77 64 54 51 43 35 26 162
156 154 151 150 149 147 146 145 144 143 142 142 139 138 135 131 128 126 125 123 120 117 114 110 107 105 104 103 99 96 94 93 95 96 95 93 95 100 106 111 113 116 121 126 128 129 131 131 130 129 128 124 123 122 119 116 112 109 104 98 90 74 57 43 36 30 21 11 99
157 155 153 151 150 150 149 148 147 146 145 142 140 137 134 131 129 127 126 124 122 120 119 116 113 110 108 104 100 94 90 86 87 90 93 93 94 97 101 107 112 118 124 130 133 135 136 136 136 135 133 128 127 126 123 119 114 109 103 97 90 76 58 40 33 28 22 15 33
154 153 153 152 151 151 150 149 148 147 145 142 139 136 133 131 127 125 123 120 119 119 118 117 115 113 109 105 101 96 89 79 73 73 76 79 83 86 89 95 106 118 128 135 138 140 142 142 140 139 135 128 127 126 125 121 115 110 103 93 89 78 63 39 32 29 24 15 14
151 152 152 152 152 151 150 149 147 145 143 139 138 135 131 127 124 122 121 120 120 119 118 118 116 113 110 107 104 99 92 78 61 51 46 47 54 60 63 63 75 98 123 139 144 146 146 146 144 142 138 131 127 126 125 124 120 116 110 100 89 82 73 54 39 32 25 14 5